Showing default

COSMOS 2224, 22269

Orbit data source: Space-Track

COSMOS 2224, 22269 is a payload satellite owned by PVO (CIS) in GEO that was launched on Thu, 17 Dec 1992 UTC via a PROTON-K/DM-2 launch vehicle from the Tyuratam Missile And Space Complex (TTMTR). Payload-class satellites include a variety of spacecraft equipped with specific instruments for various scientific and technological missions. These include communications satellites like Starlink; space stations such as the ISS; scientific satellites like the Hubble; Earth observation satellites from companies like Planet Labs, Umbra, and HawkEye 360; GPS; miniature CubeSats for education and research; and military/defense satellites.

Not visible in the next 10 days
Identifier
22269, 1992-088A
Orbit
GEO
Last TLE update
3 days ago
Origin
Manufacturer
NPOL/KOMET
Mission
Non-operational Defense Early Warn
Bus & Motor
PROGNOZ, Unknown motor
Mass
~2,200 kg wet, ~2,100 kg dry
Launch date (UTC)
1992-12-17 (32 years ago)
Launch vehicle
PROTON-K/DM-2
Launch site
Tyuratam Missile And Space Complex (TTMTR)
Object type
Payload
Rocket body
Debris
Shape & HBR
Hex Poly + 2 Pan, 2 m
Radar Cross Section
4.571 m², Large (>1 m²)

Expand to show TLE details & history

TLE from 3 days ago
0 COSMOS 2224
1 22269U 92088A   25126.88074091 -.00000122  00000-0  00000-0 0  9997
2 22269  13.8118 350.8793 0005133 253.1641 286.6593  1.00268262118011
Epoch: 2025-05-06T21:08Z
Definitive object data (Epoch: 2025-05-06T21:08:16.014Z)
Latitude
0.04182°
Longitude
-11.36781°
Altitude
35,780.83 km
Speed
3.075 km/s
True Right ascension
11h 22m 41s
True Declination
0° 02' 30"
Sunlit
Object was in daylight at TLE epoch
Visualization TLE readout
Latitude
13.63116°
Longitude
-110.94108°
Altitude
35,808.074 km
Speed
3.073 km/s
Apparent Right ascension
05h 11m 24s
Apparent Declination
8° 01' 24"
Sunlit
Object is in daylight
Visualization observer readout
Local Sidereal Time
22:30:32
Azimuth
77.292° E
Elevation
-2.588°
Doppler factor
1
Orbital elements
Apogee altitude
35,810.208 km
Perigee altitude
35,766.92 km
Semi-major axis
42,166.701 km
Eccentricity
0.0005133
Inclination
13.8118°
RAAN
350.8793°
Arg. of periapsis
253.1641°
True anomaly
286.60294°
Mean anomaly
286.6593°
Eccentric anomaly
286.63112°
Mean motion
0.25066 °/min
BSTAR
Unknown
Orbital period
1436.2 mins
Loading historical data...
22269 neighbors
Loading maneuver chart data...
Loading SW <> Apogee altitude chart data...
Loading historical data...
Loading historical data...
Loading historical data...
Loading historical data...
Loading historical data...
Loading historical data...
Loading historical data...

COSMOS 2224 Visibility forecast

Observer location: undefined°, undefined°

COSMOS 2224 is not visible in the next 10 days
Span
Click to sort rows by Start time (UTC) header in descending order
Start Az.
Max El. time (UTC)
Max El. Az.
Max El.
End time (UTC)
End Az.
|